When you browse on this site, cookies collect data to enhance your experience and personalize the content and advertising you see.
Visit our Privacy Policy to learn more. By continuing to use the site, you agree to this use of cookies and data.
  • In Spain
  • List of Countries
  • For 7 days
  • Water Temperature
  • Weather Map
  • Weather Widgets
  • user-avatar
    Login

    Hourly Weather Zakopane

    Today, 1 June, Monday

    Time Temperature Precipitation Wind Pressure Humidity
    00:00 +8°C° 0.1 mm 2 mps 683 mmHg 99%
    01:00 +7°C° 0 mm 2 mps 683 mmHg 98%
    02:00 +7°C° 0.1 mm 2 mps 683 mmHg 98%
    03:00 +7°C° 0.1 mm 2 mps 683 mmHg 98%
    04:00 +7°C° 0.1 mm 1 mps 682 mmHg 98%
    05:00 +8°C° 0.1 mm 2 mps 683 mmHg 95%
    06:00 +9°C° 0.1 mm 2 mps 683 mmHg 92%
    07:00 +10°C° 0 mm 3 mps 684 mmHg 89%
    08:00 +11°C° 0.3 mm 3 mps 684 mmHg 86%
    09:00 +12°C° 0.3 mm 4 mps 684 mmHg 82%
    10:00 +12°C° 0.3 mm 4 mps 684 mmHg 78%
    11:00 +12°C° 0.4 mm 4 mps 684 mmHg 76%
    12:00 +13°C° 0.4 mm 4 mps 684 mmHg 73%
    13:00 +13°C° 0.4 mm 4 mps 684 mmHg 70%
    14:00 +13°C° 0.1 mm 5 mps 684 mmHg 70%
    15:00 +12°C° 0.1 mm 5 mps 684 mmHg 70%
    16:00 +12°C° 0.1 mm 5 mps 684 mmHg 70%
    17:00 +10°C° 0.1 mm 4 mps 683 mmHg 76%
    18:00 +8°C° 0.1 mm 4 mps 683 mmHg 82%
    19:00 +7°C° 0.1 mm 3 mps 683 mmHg 88%
    20:00 +5°C° 0 mm 3 mps 683 mmHg 89%
    21:00 +5°C° 0 mm 2 mps 683 mmHg 90%
    22:00 +5°C° 0 mm 1 mps 683 mmHg 92%
    23:00 +5°C° 0 mm 1 mps 683 mmHg 91%

    Tomorrow, 2 June, Tuesday

    Time Temperature Precipitation Wind Pressure Humidity
    00:00 +5°C° 0 mm 1 mps 683 mmHg 91%
    01:00 +5°C° 0 mm 1 mps 683 mmHg 90%
    02:00 +5°C° 0.3 mm 1 mps 682 mmHg 92%
    03:00 +4°C° 0.3 mm 1 mps 682 mmHg 94%
    04:00 +4°C° 0.3 mm 1 mps 681 mmHg 96%
    05:00 +5°C° 1.2 mm 1 mps 682 mmHg 97%
    06:00 +5°C° 1.2 mm 1 mps 682 mmHg 97%
    07:00 +5°C° 1.2 mm 1 mps 682 mmHg 98%
    08:00 +6°C° 0.3 mm 2 mps 682 mmHg 91%
    09:00 +7°C° 0.3 mm 2 mps 682 mmHg 85%
    10:00 +9°C° 0.3 mm 3 mps 682 mmHg 79%
    11:00 +9°C° 0.2 mm 3 mps 682 mmHg 75%
    12:00 +10°C° 0.2 mm 3 mps 682 mmHg 71%
    13:00 +11°C° 0.2 mm 3 mps 681 mmHg 68%
    14:00 +11°C° 0.3 mm 3 mps 681 mmHg 70%
    15:00 +10°C° 0.3 mm 3 mps 681 mmHg 71%
    16:00 +10°C° 0.3 mm 3 mps 680 mmHg 73%
    17:00 +9°C° 0.2 mm 3 mps 680 mmHg 79%
    18:00 +8°C° 0.2 mm 2 mps 680 mmHg 84%
    19:00 +8°C° 0.2 mm 1 mps 679 mmHg 89%
    20:00 +7°C° 0.1 mm 1 mps 679 mmHg 91%
    21:00 +6°C° 0.1 mm 1 mps 679 mmHg 93%
    22:00 +5°C° 0.1 mm 1 mps 679 mmHg 95%
    23:00 +5°C° 0.1 mm 1 mps 678 mmHg 95%

    Day after tomorrow, 3 June, Wednesday

    Time Temperature Precipitation Wind Pressure Humidity
    00:00 +4°C° 0.1 mm 1 mps 678 mmHg 95%
    01:00 +4°C° 0.1 mm 1 mps 678 mmHg 95%
    02:00 +4°C° 0 mm 1 mps 677 mmHg 95%
    03:00 +3°C° 0 mm 1 mps 677 mmHg 95%
    04:00 +3°C° 0 mm 1 mps 677 mmHg 95%
    05:00 +5°C° 0.1 mm 1 mps 677 mmHg 91%
    06:00 +7°C° 0.1 mm 1 mps 677 mmHg 86%
    07:00 +9°C° 0.1 mm 1 mps 677 mmHg 82%
    08:00 +10°C° 0.1 mm 1 mps 677 mmHg 74%
    09:00 +10°C° 0.1 mm 2 mps 678 mmHg 65%
    10:00 +12°C° 0.1 mm 2 mps 678 mmHg 56%
    11:00 +13°C° 0.1 mm 2 mps 678 mmHg 56%
    12:00 +13°C° 0.1 mm 2 mps 678 mmHg 55%
    13:00 +14°C° 0.1 mm 2 mps 677 mmHg 54%
    14:00 +14°C° 0.1 mm 2 mps 677 mmHg 56%
    15:00 +13°C° 0.1 mm 2 mps 677 mmHg 58%
    16:00 +13°C° 0.1 mm 2 mps 677 mmHg 59%
    17:00 +12°C° 0.1 mm 2 mps 676 mmHg 68%
    18:00 +10°C° 0.1 mm 1 mps 676 mmHg 78%
    19:00 +9°C° 0.1 mm 1 mps 675 mmHg 87%
    20:00 +7°C° 0 mm 1 mps 675 mmHg 89%
    21:00 +6°C° 0 mm 1 mps 675 mmHg 91%
    22:00 +4°C° 0 mm 0 mps 675 mmHg 93%
    23:00 +4°C° 0 mm 0 mps 675 mmHg 92%

    4 June, Thursday

    Time Temperature Precipitation Wind Pressure Humidity
    00:00 +4°C° 0 mm 1 mps 675 mmHg 92%
    01:00 +4°C° 0 mm 1 mps 675 mmHg 91%
    02:00 +4°C° 0 mm 1 mps 674 mmHg 91%
    03:00 +4°C° 0 mm 1 mps 674 mmHg 91%
    04:00 +4°C° 0 mm 1 mps 674 mmHg 91%
    05:00 +6°C° 0 mm 1 mps 674 mmHg 83%
    06:00 +8°C° 0 mm 0 mps 675 mmHg 75%
    07:00 +11°C° 0 mm 0 mps 675 mmHg 67%
    08:00 +12°C° 0 mm 0 mps 676 mmHg 59%
    09:00 +15°C° 0 mm 1 mps 676 mmHg 51%
    10:00 +18°C° 0 mm 1 mps 676 mmHg 42%
    11:00 +19°C° 0 mm 1 mps 676 mmHg 43%
    12:00 +18°C° 0 mm 2 mps 676 mmHg 43%
    13:00 +19°C° 0 mm 2 mps 676 mmHg 43%
    14:00 +19°C° 0.1 mm 2 mps 675 mmHg 47%
    15:00 +19°C° 0.1 mm 2 mps 675 mmHg 50%
    16:00 +18°C° 0.1 mm 2 mps 674 mmHg 53%
    17:00 +17°C° 0 mm 2 mps 674 mmHg 63%
    18:00 +15°C° 0 mm 1 mps 673 mmHg 74%
    19:00 +13°C° 0 mm 1 mps 673 mmHg 85%
    20:00 +12°C° 0 mm 2 mps 672 mmHg 88%
    21:00 +12°C° 0 mm 2 mps 672 mmHg 91%
    22:00 +10°C° 0 mm 2 mps 672 mmHg 95%
    23:00 +10°C° 0 mm 2 mps 671 mmHg 95%

    5 June, Friday

    Time Temperature Precipitation Wind Pressure Humidity
    00:00 +10°C° 0 mm 2 mps 671 mmHg 95%
    01:00 +10°C° 0 mm 2 mps 671 mmHg 96%
    02:00 +10°C° 0 mm 2 mps 671 mmHg 96%
    03:00 +10°C° 0 mm 2 mps 671 mmHg 96%
    04:00 +10°C° 0 mm 2 mps 670 mmHg 96%
    05:00 +12°C° 0 mm 2 mps 671 mmHg 93%
    06:00 +12°C° 0 mm 3 mps 671 mmHg 90%
    07:00 +13°C° 0 mm 3 mps 672 mmHg 87%
    08:00 +14°C° 0 mm 3 mps 672 mmHg 82%
    09:00 +16°C° 0 mm 3 mps 672 mmHg 78%
    10:00 +17°C° 0 mm 3 mps 673 mmHg 73%
    11:00 +16°C° 0.2 mm 3 mps 673 mmHg 77%
    12:00 +16°C° 0.2 mm 3 mps 673 mmHg 80%
    13:00 +16°C° 0.2 mm 3 mps 673 mmHg 84%
    14:00 +16°C° 0.3 mm 2 mps 673 mmHg 84%
    15:00 +16°C° 0.3 mm 2 mps 673 mmHg 84%
    16:00 +16°C° 0.3 mm 2 mps 673 mmHg 84%
    17:00 +15°C° 2 mm 2 mps 673 mmHg 89%
    18:00 +14°C° 2 mm 1 mps 673 mmHg 93%
    19:00 +14°C° 2 mm 1 mps 673 mmHg 98%
    20:00 +13°C° 2.2 mm 1 mps 673 mmHg 98%
    21:00 +12°C° 2.2 mm 2 mps 673 mmHg 98%
    22:00 +10°C° 2.2 mm 2 mps 674 mmHg 98%
    23:00 +10°C° 4.4 mm 2 mps 674 mmHg 98%

    6 June, Saturday

    Time Temperature Precipitation Wind Pressure Humidity
    00:00 +9°C° 4.4 mm 2 mps 674 mmHg 98%
    01:00 +8°C° 4.4 mm 2 mps 674 mmHg 98%
    02:00 +8°C° 2.6 mm 2 mps 674 mmHg 98%
    03:00 +8°C° 2.6 mm 2 mps 675 mmHg 98%
    04:00 +7°C° 2.6 mm 2 mps 675 mmHg 98%
    05:00 +7°C° 0.8 mm 2 mps 675 mmHg 97%
    06:00 +7°C° 0.8 mm 2 mps 676 mmHg 97%
    07:00 +7°C° 0.8 mm 2 mps 676 mmHg 96%
    08:00 +8°C° 0 mm 2 mps 677 mmHg 89%
    09:00 +10°C° 0 mm 1 mps 678 mmHg 83%
    10:00 +11°C° 0 mm 1 mps 678 mmHg 76%
    11:00 +13°C° 0 mm 1 mps 679 mmHg 66%
    12:00 +15°C° 0 mm 2 mps 679 mmHg 57%
    13:00 +17°C° 0 mm 2 mps 680 mmHg 47%
    14:00 +17°C° 0 mm 2 mps 680 mmHg 49%
    15:00 +16°C° 0 mm 2 mps 680 mmHg 52%
    16:00 +16°C° 0 mm 2 mps 680 mmHg 54%
    17:00 +15°C° 0.1 mm 2 mps 679 mmHg 65%
    18:00 +14°C° 0.1 mm 1 mps 679 mmHg 76%
    19:00 +12°C° 0.1 mm 1 mps 679 mmHg 87%
    20:00 +11°C° 0.1 mm 1 mps 679 mmHg 89%
    21:00 +10°C° 0.1 mm 1 mps 679 mmHg 92%
    22:00 +9°C° 0.1 mm 1 mps 679 mmHg 94%
    23:00 +8°C° 0 mm 1 mps 679 mmHg 94%
    Show more